EC2UT-13 Weather Reports


Display with metric or nautical units.
time (UTC)temp
F
wind
direction
speed
MPH
gust
MPH
rain 1hr
in
rain 24hr
in
rain mn
in
humidity
%
barometer
mb
20260507095536 63 90 2.0 7.0 0.00 0.00 0.00 44 1014.4
20260507094516 61 180 1.0 4.0 0.00 0.00 0.00 46 1014.4
20260507093517 59 113 1.0 3.0 0.00 0.00 0.00 47 1014.5
20260507092516 58 0 2.0 4.0 0.00 0.00 0.00 49 1014.6
20260507091516 57 45 2.0 6.0 0.00 0.00 0.00 50 1014.5
20260507090516 56 338 2.0 4.0 0.00 0.00 0.00 51 1014.7
20260507085516 56 338 2.0 4.0 0.00 0.00 0.00 51 1014.6
20260507084517 55 0.0 2.0 0.00 0.00 0.00 53 1014.8
20260507083537 54 45 2.0 4.0 0.00 0.00 0.00 54 1014.8
20260507082556 53 0 1.0 4.0 0.00 0.00 0.00 56 1014.8
20260507081516 52 45 2.0 3.0 0.00 0.00 0.00 57 1014.8
20260507080516 51 23 3.0 5.0 0.00 0.00 0.00 57 1014.8
20260507075517 51 23 2.0 4.0 0.00 0.00 0.00 57 1014.9
20260507074516 51 45 5.0 7.0 0.00 0.00 0.00 57 1014.9
20260507073516 51 68 5.0 6.0 0.00 0.00 0.00 56 1014.9
20260507072516 51 68 3.0 7.0 0.00 0.00 0.00 56 1015.0
20260507071516 51 45 3.0 5.0 0.00 0.00 0.00 55 1014.9
20260507070516 51 338 1.0 3.0 0.00 0.00 0.00 56 1014.9
20260507065516 51 45 2.0 3.0 0.00 0.00 0.00 56 1015.0
20260507064517 51 45 2.0 4.0 0.00 0.00 0.00 56 1014.9
20260507063516 50 338 3.0 6.0 0.00 0.00 0.00 57 1014.7
20260507062516 50 0 4.0 7.0 0.00 0.00 0.00 57 1014.7
20260507061537 50 0 3.0 5.0 0.00 0.00 0.00 58 1014.8
20260507060516 50 0 3.0 5.0 0.00 0.00 0.00 58 1014.7
20260507055517 50 338 3.0 4.0 0.00 0.00 0.00 58 1014.6
20260507054516 50 338 4.0 6.0 0.00 0.00 0.00 58 1014.5
20260507053536 50 0 2.0 5.0 0.00 0.00 0.00 58 1014.4
20260507052516 49 338 3.0 5.0 0.00 0.00 0.00 58 1014.4
20260507051516 50 338 5.0 8.0 0.00 0.00 0.00 58 1014.3
20260507050516 50 0 3.0 8.0 0.00 0.00 0.00 59 1014.3
20260507045516 50 23 4.0 6.0 0.00 0.00 0.00 58 1014.1
20260507044516 50 0 5.0 8.0 0.00 0.00 0.00 58 1014.2
20260507043536 50 338 6.0 10.0 0.00 0.00 0.00 58 1014.2
20260507042536 50 338 4.0 6.0 0.00 0.00 0.00 58 1014.2
20260507041516 50 338 4.0 7.0 0.00 0.00 0.00 58 1014.1
20260507040516 51 338 5.0 8.0 0.00 0.00 0.00 58 1014.2
20260507035516 52 338 4.0 5.0 0.00 0.00 0.00 58 1014.2
20260507034516 52 315 2.0 4.0 0.00 0.00 0.00 58 1014.1
20260507033516 52 338 3.0 9.0 0.00 0.00 0.00 58 1014.0
20260507032516 52 293 3.0 8.0 0.00 0.00 0.00 58 1014.0
20260507031518 52 293 2.0 7.0 0.00 0.00 0.00 57 1014.1
20260507030539 52 293 3.0 6.0 0.00 0.00 0.00 57 1014.1
20260507025539 52 315 2.0 6.0 0.00 0.00 0.00 58 1014.1
20260507024516 52 315 2.0 5.0 0.00 0.00 0.00 58 1014.1
20260507023518 52 315 2.0 5.0 0.00 0.00 0.00 58 1014.1
20260507022518 53 293 2.0 4.0 0.00 0.00 0.00 58 1014.1
20260507021517 53 293 1.0 4.0 0.00 0.00 0.00 58 1014.0
20260507020518 53 293 2.0 4.0 0.00 0.00 0.00 58 1014.0
20260507015558 53 338 3.0 8.0 0.00 0.00 0.00 57 1013.9
20260507014518 53 315 4.0 8.0 0.00 0.00 0.00 57 1014.0
20260507013518 53 293 3.0 6.0 0.00 0.00 0.00 57 1014.0
20260507012538 54 293 4.0 8.0 0.00 0.00 0.00 57 1013.9
20260507011518 54 293 3.0 8.0 0.00 0.00 0.00 57 1014.0
20260507010518 54 315 5.0 9.0 0.00 0.00 0.00 57 1014.0
20260507005518 54 338 4.0 10.0 0.00 0.00 0.00 57 1014.2
20260507004518 54 293 4.0 8.0 0.00 0.00 0.00 56 1014.1
20260507003518 55 293 5.0 9.0 0.00 0.00 0.00 55 1014.2
20260507002538 55 293 6.0 12.0 0.00 0.00 0.00 55 1014.3
20260507001518 55 293 6.0 12.0 0.00 0.00 0.00 54 1014.1
20260507000518 56 270 8.0 13.0 0.00 0.00 0.00 54 1014.2
20260506235517 56 270 8.0 12.0 0.00 0.00 0.00 54 1014.4
20260506234518 56 270 8.0 15.0 0.00 0.00 0.00 55 1014.4
20260506233518 56 293 7.0 15.0 0.00 0.00 0.00 55 1014.2
20260506232518 56 270 6.0 12.0 0.00 0.00 0.00 55 1014.3
20260506231538 56 270 7.0 14.0 0.00 0.00 0.00 55 1014.1
20260506230517 56 270 8.0 14.0 0.00 0.00 0.00 55 1013.9
20260506225538 56 270 7.0 14.0 0.00 0.00 0.00 55 1014.0
20260506224517 56 293 8.0 12.0 0.00 0.00 0.00 55 1013.9
20260506223518 57 293 5.0 9.0 0.00 0.00 0.00 55 1013.9
20260506222518 57 293 7.0 12.0 0.00 0.00 0.00 54 1014.0
20260506221517 57 293 6.0 12.0 0.00 0.00 0.00 53 1013.8
20260506220518 57 270 7.0 15.0 0.00 0.00 0.00 53 1013.8
20260506215517 58 270 7.0 12.0 0.00 0.00 0.00 52 1014.0
20260506214517 58 248 4.0 8.0 0.00 0.00 0.00 51 1013.9
20260506213517 59 293 4.0 11.0 0.00 0.00 0.00 50 1013.8
20260506212538 59 270 5.0 12.0 0.00 0.00 0.00 49 1013.8
20260506211517 60 293 5.0 13.0 0.00 0.00 0.00 48 1013.8
20260506210517 60 293 5.0 9.0 0.00 0.00 0.00 47 1013.6
20260506205517 60 293 5.0 11.0 0.00 0.00 0.00 46 1013.6
20260506204537 61 315 6.0 11.0 0.00 0.00 0.00 46 1013.4
20260506203517 61 315 5.0 13.0 0.00 0.00 0.00 45 1013.3
20260506202517 62 293 4.0 9.0 0.00 0.00 0.00 44 1013.3
20260506201517 62 315 4.0 8.0 0.00 0.00 0.00 44 1013.3
20260506200517 62 270 4.0 10.0 0.00 0.00 0.00 43 1013.2
20260506195517 63 315 4.0 9.0 0.00 0.00 0.00 42 1012.9
20260506194557 63 315 5.0 10.0 0.00 0.00 0.00 41 1012.8
20260506193538 64 315 6.0 10.0 0.00 0.00 0.00 40 1012.7
20260506192517 64 315 6.0 11.0 0.00 0.00 0.00 38 1012.6
20260506191518 65 315 5.0 13.0 0.00 0.00 0.00 38 1012.5
20260506190517 65 315 7.0 11.0 0.00 0.00 0.00 36 1012.4
20260506185517 66 293 6.0 11.0 0.00 0.00 0.00 34 1012.3
20260506184537 66 338 8.0 13.0 0.00 0.00 0.00 32 1012.2
20260506183517 66 338 9.0 15.0 0.00 0.00 0.00 32 1012.2
20260506182517 66 338 10.0 16.0 0.00 0.00 0.00 31 1012.0
20260506181517 67 315 13.0 19.0 0.00 0.00 0.00 31 1012.0
20260506180517 67 315 10.0 16.0 0.00 0.00 0.00 30 1012.0
20260506175517 67 338 9.0 16.0 0.00 0.00 0.00 30 1011.8
20260506174517 67 315 8.0 16.0 0.00 0.00 0.00 31 1011.8
20260506173517 67 338 12.0 21.0 0.00 0.00 0.00 31 1011.8
20260506172517 68 338 10.0 20.0 0.00 0.00 0.00 31 1011.8
20260506171517 68 315 9.0 16.0 0.00 0.00 0.00 30 1011.8
20260506170516 68 338 8.0 14.0 0.00 0.00 0.00 31 1011.8
20260506165517 68 315 8.0 13.0 0.00 0.00 0.00 31 1011.8
20260506164517 69 338 5.0 11.0 0.00 0.00 0.00 31 1011.9
20260506163517 69 315 4.0 9.0 0.00 0.00 0.00 29 1011.9
20260506162537 69 338 5.0 11.0 0.00 0.00 0.00 31 1011.9
20260506161517 69 0 6.0 15.0 0.00 0.00 0.00 28 1012.1
20260506160516 69 315 3.0 8.0 0.00 0.00 0.00 30 1012.2
20260506155517 68 180 5.0 13.0 0.00 0.00 0.00 31 1012.1
20260506154517 68 338 7.0 11.0 0.00 0.00 0.00 30 1012.2
20260506153537 69 293 6.0 12.0 0.00 0.00 0.00 30 1012.2
20260506152517 69 293 4.0 12.0 0.00 0.00 0.00 30 1012.3
20260506151537 69 293 6.0 15.0 0.00 0.00 0.00 31 1012.3
20260506150517 68 338 6.0 13.0 0.00 0.00 0.00 31 1012.5
20260506145517 69 248 5.0 12.0 0.00 0.00 0.00 30 1012.5
20260506144517 69 270 5.0 13.0 0.00 0.00 0.00 29 1012.6
20260506143517 68 293 3.0 7.0 0.00 0.00 0.00 30 1012.8
20260506142516 68 293 4.0 9.0 0.00 0.00 0.00 29 1012.8
20260506141516 68 293 6.0 12.0 0.00 0.00 0.00 29 1012.9
20260506140517 67 225 4.0 9.0 0.00 0.00 0.00 32 1013.1
20260506135517 67 270 7.0 14.0 0.00 0.00 0.00 31 1013.3
20260506134516 67 270 6.0 11.0 0.00 0.00 0.00 32 1013.5
20260506133516 67 203 5.0 9.0 0.00 0.00 0.00 32 1013.4
20260506132516 67 270 5.0 12.0 0.00 0.00 0.00 33 1013.6
20260506131537 66 180 5.0 10.0 0.00 0.00 0.00 34 1013.6
20260506130517 66 270 6.0 13.0 0.00 0.00 0.00 33 1013.5
20260506125517 66 225 4.0 10.0 0.00 0.00 0.00 34 1013.7
20260506124516 65 293 7.0 16.0 0.00 0.00 0.00 33 1013.7
20260506123537 65 225 5.0 10.0 0.00 0.00 0.00 34 1013.7
20260506122517 65 270 6.0 13.0 0.00 0.00 0.00 37 1013.8
20260506121516 64 225 7.0 13.0 0.00 0.00 0.00 36 1013.8
20260506120516 64 270 7.0 14.0 0.00 0.00 0.00 37 1013.9
20260506115516 64 315 3.0 10.0 0.00 0.00 0.00 39 1014.1
20260506114516 64 293 4.0 11.0 0.00 0.00 0.00 40 1014.2
20260506113516 63 315 6.0 14.0 0.00 0.00 0.00 42 1014.2
20260506112517 63 338 7.0 16.0 0.00 0.00 0.00 41 1014.3
20260506111516 63 315 7.0 14.0 0.00 0.00 0.00 38 1014.4
20260506110516 63 180 4.0 8.0 0.00 0.00 0.00 39 1014.5
20260506105516 62 270 6.0 13.0 0.00 0.00 0.00 38 1014.5
20260506104516 61 315 5.0 12.0 0.00 0.00 0.00 40 1014.5
20260506103516 61 293 6.0 16.0 0.00 0.00 0.00 39 1014.7
20260506102517 61 338 7.0 14.0 0.00 0.00 0.00 42 1014.7
20260506101536 60 315 9.0 16.0 0.00 0.00 0.00 39 1014.8
20260506100516 60 315 10.0 23.0 0.00 0.00 0.00 42 1014.9